Rbgn^[z[y[W
メイン
   新天体発見情報
     Comet P/2012 TK8 = 2021 S2 (Tenagra)
投稿するにはまず登録を

スレッド表示 | 新しいものから 前のトピック | 次のトピック | 下へ
投稿者 スレッド
佐藤裕久
投稿日時: 2021-10-23 11:00
モデレータ
登録日: 2005-6-12
居住地: 日本
投稿: 2279
オンライン
Comet P/2012 TK8 = 2021 S2 (Tenagra)

E. Schwab (Egelsbach, ドイツ)の通報によると、9月30日と10月1日UT、Calar Alto のプログラム
の0.8-m f/3 Schmidt望遠鏡で得たCCD画像からP/2012 TK8 (CBET 3262を参照)を検出した。 
二夜とも60秒露出12枚のスタックで、光度19.7等〜20.0等、約270°に約10"の尾が見えた。

NK 2685とICQ's 2020 & 2021 Comet Handbookの中野主一氏の予報に対し、Delta(T) = -0.38 day
であった。
MPC 87914の予報に対して、Delta(T)は、-0.49 dayであった。
彗星年表2021の佐藤裕久の参考軌道要素の修正値は、Delta(T) = -0.59 dayであった。

検出位置は次のとおり、

     2021 UT             R.A. (2000) Decl.       Mag.   Observer
     Sept.30.15890    4 24 05.53   +28 23 08.0   20.0   Schwab
          30.17118    4 24 05.71   +28 23 09.5   19.9     "
          30.18346    4 24 05.91   +28 23 10.9   20.0     "
     Oct.  1.15890    4 24 19.65   +28 24 39.6   19.7     "
           1.17119    4 24 19.83   +28 24 40.7   19.8     "
           1.18348    4 24 19.96   +28 24 42.2   19.8     "

MPCの連結軌道要素と位置推算表は次のとおり、

Orbital elements:
    P/2012 TK8 (Tenagra)                                                        
Epoch 2013 May 28.0 TT = JDT 2456440.5                                          
T 2013 May 10.56162 TT                                  Rudenko                 
q   3.0909434            (2000.0)            P               Q                  
n   0.11497393     Peri.  128.20512     +0.52651283     -0.84387763             
a   4.1886087      Node   289.72362     +0.74172106     +0.51529049             
e   0.2620597      Incl.    6.29545     +0.41549262     +0.14948663             
P   8.57                                                                        
From 70 observations 2012 Oct. 6-2021 Oct. 1, mean residual 0".8.               
                                                                                
    P/2012 TK8 (Tenagra)                                                        
Epoch 2021 Nov. 2.0 TT = JDT 2459520.5                                          
T 2021 Oct. 25.69838 TT                                 Rudenko                 
q   2.9954300            (2000.0)            P               Q                  
n   0.11755149     Peri.  128.02939     +0.54015652     -0.83505972             
a   4.1271534      Node   288.96560     +0.73338513     +0.52794832             
e   0.2742140      Incl.    6.33996     +0.41276772     +0.15474443             
P   8.38                                                                        
From 70 observations 2012 Oct. 6-2021 Oct. 1, mean residual 0".8.               
                                                                                
    P/2012 TK8 (Tenagra)                                                        
Epoch 2030 Apr. 9.0 TT = JDT 2462600.5                                          
T 2030 Mar. 27.88248 TT                                 Rudenko                 
q   3.0118325            (2000.0)            P               Q                  
n   0.11689259     Peri.  128.26856     +0.53785920     -0.83655170             
a   4.1426482      Node   288.88491     +0.73493630     +0.52592592             
e   0.2729693      Incl.    6.33179     +0.41300862     +0.15356817             
P   8.43                                                                        
From 70 observations 2012 Oct. 6-2021 Oct. 1, mean residual 0".8.               
                                                                                
    P/2012 TK8 (Tenagra)                                                        
Epoch 2021 July 5.0 TT = JDT 2459400.5                                          
T 2021 Oct. 25.62942 TT                                 Rudenko                 
q   2.9954641            (2000.0)            P               Q                  
n   0.11757177     Peri.  128.01492     +0.54037789     -0.83491629             
a   4.1266788      Node   288.96488     +0.73324511     +0.52814352             
e   0.2741223      Incl.    6.34002     +0.41272672     +0.15485223             
P   8.38                                                                        
From 70 observations 2012 Oct. 6-2021 Oct. 1, mean residual 0".8.               
                                                                                
Ephemeris:
Date    TT    R. A. (2000) Decl.     Delta      r    Elong.  Phase   m1
2021 09 04    04 10 06.4 +27 21 39   2.7349  3.0075    95.7    19.5  20.0
...
2021 09 19    04 19 53.0 +28 01 49   2.5358  3.0015   107.9    18.6  19.8
...
2021 09 27    04 23 11.5 +28 17 54   2.4354  2.9991   114.9    17.6  19.7
...
2021 10 03    04 24 41.8 +28 27 18   2.3641  2.9978   120.4    16.7  19.6
2021 10 04    04 24 51.8 +28 28 38   2.3526  2.9976   121.4    16.6  19.6
2021 10 05    04 25 00.2 +28 29 53   2.3412  2.9974   122.3    16.4  19.6
...
2021 10 11    04 25 19.3 +28 35 52   2.2758  2.9964   128.1    15.2  19.6
...
2021 10 19    04 24 20.6 +28 39 22   2.1973  2.9956   136.1    13.3  19.5
...
2021 11 03    04 18 25.7 +28 30 02   2.0834  2.9957   152.0     9.0  19.4

(MPEC 2021-T44、CBET 5048、oaa-comet 2258)

スレッド表示 | 新しいものから 前のトピック | 次のトピック | トップ

投稿するにはまず登録を
 
© 1999 Tsutomu Seki.